Overview Statistics Trail Chart Weather Telemetry Raw packets
 

This is the latest recevied weather packets stored in our database for station/object KL4TQ. If no packets are shown the sender has not sent any weather packets the latest 10 day(s).

<< 32 33 34 35 36 37 38 >>
Time Temp. Humidity Pressure Rain* Wind** Luminosity Snow
1777472768 1.67° C 69% 856 hPa 0 mm - 35 W/m² -
1777472468 1.67° C 69% 856 hPa 0 mm - 32 W/m² -
1777472169 1.67° C 68% 856 hPa 0 mm - 27 W/m² -
1777471869 1.67° C 66% 856 hPa 0 mm - 23 W/m² -
1777471568 1.67° C 65% 856 hPa 0 mm - 19 W/m² -
1777471269 1.67° C 66% 856 hPa 0 mm - 16 W/m² -
1777470968 1.67° C 66% 856 hPa 0 mm - 13 W/m² -
1777470669 1.67° C 68% 856 hPa 0 mm - 11 W/m² -
1777470369 1.67° C 69% 856 hPa 0 mm - 10 W/m² -
1777470068 1.67° C 68% 856 hPa 0 mm - 9 W/m² -
1777469770 1.67° C 71% 856 hPa 0 mm - 7 W/m² -
1777469469 1.67° C 71% 856 hPa 0 mm - 5 W/m² -
1777469170 1.67° C 72% 856 hPa 0 mm - 4 W/m² -
1777468868 1.67° C 73% 856 hPa 0 mm - 3 W/m² -
1777468569 1.67° C 71% 856 hPa 0 mm - 2 W/m² -
1777468269 1.67° C 72% 856 hPa 0 mm - 1 W/m² -
1777467969 1.67° C 72% 856 hPa 0 mm - 1 W/m² -
1777467668 1.67° C 74% 856 hPa 0 mm - 1 W/m² -
1777467368 1.67° C 75% 856 hPa 0 mm - 1 W/m² -
1777467069 1.67° C 75% 856 hPa 0 mm - 1 W/m² -
1777466768 1.67° C 76% 856 hPa 0 mm - 0 W/m² -
1777466469 1.67° C 76% 856 hPa 0 mm - 0 W/m² -
1777466169 2.22° C 75% 856 hPa 0 mm - 0 W/m² -
1777465869 2.22° C 75% 856 hPa 0 mm - 0 W/m² -
1777465568 2.22° C 73% 856 hPa 0 mm - 0 W/m² -

* Rain latest hour (hover to see other rain measurements)
** Current wind speed in m/s (hover to see current wind gust speed)